• Join FlightAware (Why Join?)
  • Login
  • US Flag 
07:28PM EST


 

Airport Tracker/Info


-or-


 

Live Flight TrackerFlight Track Log ✈ TVD400 ✈ 17-Feb-2012 ✈ KEAT - KBFI

Flight Track Log - Related Links

Times and Time Zones

All times are in EST time to prevent confusion due to time zone crossing. See the TVD400 flight status page for this flight to view local times or setup timezone preferences in your user account.

Time Position Orientation Groundspeed Altitude Reporting Facility
EST Latitude Longitude Course Direction KTS MPH feet Rate Location/Type
11:13PM 47.4036 -120.2594 119° Southeast  Level FlightAware Approximate
11:18PM 47.3508 -120.1194 52° Northeast 200 230 4,700  Level Seattle Center
11:19PM 47.3678 -120.0872 309° West 148 170 5,400 738 Climbing Seattle Center
11:20PM 47.3900 -120.1281 304° West 122 140 6,200 738 Climbing Seattle Center
11:21PM 47.4061 -120.1639 284° West 118 136 6,900 639 Climbing Seattle Center
11:22PM 47.4133 -120.2053 264° West 108 124 7,500 738 Climbing Seattle Center
11:23PM 47.4100 -120.2508 275° West 111 128 8,400 885 Climbing Seattle Center
11:24PM 47.4131 -120.3039 283° West 110 127 9,300 787 Climbing Seattle Center
11:25PM 47.4203 -120.3508 274° West 115 132 10,000 689 Climbing Seattle Center
11:26PM 47.4225 -120.3975 258° West 118 136 10,700 689 Climbing Seattle Center
11:27PM 47.4156 -120.4461 275° West 121 139 11,400 639 Climbing Seattle Center
11:28PM 47.4189 -120.4983 272° West 130 150 12,000 295 Climbing Seattle Center
11:29PM 47.4200 -120.5539 262° West 138 159 12,000 -49 Level Seattle Center
11:30PM 47.4147 -120.6083 265° West 135 155 11,900  Descending Seattle Center
11:31PM 47.4111 -120.6658 271° West 139 160 12,000 49 Climbing Seattle Center
11:32PM 47.4119 -120.7264 259° West 146 168 12,000  Level Seattle Center
11:33PM 47.4050 -120.7808 237° Southwest 138 159 12,000 -98 Level Seattle Center
11:34PM 47.3861 -120.8236 234° Southwest 128 147 11,800 -49 Descending Seattle Center
11:35PM 47.3631 -120.8708 255° West 124 143 11,900 98 Climbing Seattle Center
11:36PM 47.3542 -120.9194 252° West 123 142 12,000 49 Climbing Seattle Center
11:37PM 47.3433 -120.9686 244° Southwest 126 145 12,000 -49 Level Seattle Center
11:38PM 47.3286 -121.0139 259° West 124 143 11,900 -98 Descending Seattle Center
11:39PM 47.3219 -121.0633 249° West 125 144 11,800 -295 Descending Seattle Center
11:40PM 47.3086 -121.1133 253° West 130 150 11,300 -344 Descending Seattle Center
11:41PM 47.2981 -121.1636 240° Southwest 130 150 11,100 -639 Descending Seattle Center
11:42PM 47.2775 -121.2153 247° West 125 144 10,000 -984 Descending Seattle Center
11:43PM 47.2633 -121.2644 263° West 133 153 9,100 -836 Descending Seattle Center
11:44PM 47.2589 -121.3178 255° West 132 152 8,300 -595 Descending Seattle Center
11:45PM 47.2506 -121.3650 272° West 124 143 7,900 -300 Descending Seattle Center
11:45PM 47.2511 -121.3842 283° West 116 133 7,900 98 Level Seattle Center
11:46PM 47.2550 -121.4097 295° West 113 130 8,000 111 Climbing Seattle Center
11:46PM 47.2589 -121.4222 278° West 113 130 8,000 -98 Level Seattle Center
11:47PM 47.2619 -121.4547 268° West 111 128 7,900 -98 Descending Seattle Center
11:47PM 47.2617 -121.4667 288° West 115 132 7,900 -295 Level Seattle Center
11:48PM 47.2686 -121.4978 277° West 112 129 7,600 -590 Descending Seattle Center
11:48PM 47.2700 -121.5144 286° West 124 143 7,300 -590 Descending Seattle Center
11:49PM 47.2764 -121.5481 271° West 124 143 7,000 -295 Descending Seattle Center
11:49PM 47.2767 -121.5664 287° West 123 142 7,000 -98 Level Seattle Center
11:50PM 47.2831 -121.5964 298° West 122 140 6,900 -100 Descending Seattle Center
11:50PM 47.2886 -121.6119 286° West 119 137 6,900 98 Level Seattle Center
11:51PM 47.2958 -121.6492 273° West 116 133 7,000 98 Climbing Seattle Center
11:51PM 47.2961 -121.6572 283° West 115 132 7,000 -393 Level Seattle Center
11:52PM 47.3022 -121.6950 286° West 115 132 6,600 -590 Descending Seattle Center
11:52PM 47.3042 -121.7050 288° West 121 139 6,400 -575 Descending Seattle Center
11:53PM 47.3164 -121.7606 277° West 132 152 5,900 -273 Descending Seattle Center
11:54PM 47.3192 -121.7931 285° West 118 136 5,900  Level Seattle Center
11:54PM 47.3217 -121.8067 303° West 116 133 5,900 -98 Level Seattle Center
11:55PM 47.3325 -121.8314 290° West 107 123 5,800 -197 Descending Seattle Center
11:55PM 47.3350 -121.8417 291° West 105 121 5,700 -689 Descending Seattle Center
11:56PM 47.3436 -121.8744 291° West 112 129 5,100 -800 Descending Seattle Center
11:56PM 47.3478 -121.8903 292° West 126 145 4,900 -200 Descending Seattle Center
11:57PM 47.3561 -121.9211 288° West 121 139 4,900  Level Seattle Center
11:57PM 47.3594 -121.9361 292° West 114 131 4,900 -197 Level Seattle Center
11:58PM 47.3667 -121.9631 300° West 113 130 4,700 -393 Descending Seattle Center
11:58PM 47.3725 -121.9781 295° West 125 144 4,500 -689 Descending Seattle Center
11:59PM 47.3822 -122.0086 265° West 124 143 4,000 -984 Descending Seattle Center
11:59PM 47.3811 -122.0289 285° West 124 143 3,500 -1,279 Descending Seattle Center
12:00AM 47.3889 -122.0719 285° West 139 160 2,700 -984 Descending Seattle Center
12:00AM 47.3914 -122.0856 280° West 144 166 2,500 -493 Descending Seattle Center
12:01AM 47.3978 -122.1378 310° West 132 152 2,100  Descending Seattle Center
12:02AM 47.4139 -122.1667 343° North 125 144 2,500 600 Climbing Seattle Center
12:02AM 47.4217 -122.1703 357° North 135 155 2,700 590 Climbing Seattle Center
12:03AM 47.4517 -122.1722 303° West 140 161 3,100 590 Climbing Seattle Center
12:03AM 47.4556 -122.1811 295° West 126 145 3,300 600 Climbing Seattle Center
12:04AM 47.4653 -122.2114 260° West 111 128 3,700 492 Climbing Seattle Center
12:04AM 47.4639 -122.2225 272° West 93 107 3,800 197 Climbing Seattle Center
12:05AM 47.4647 -122.2522 263° West 103 119 3,900 98 Climbing Seattle Center
12:05AM 47.4636 -122.2650 270° West 107 123 3,900 -98 Level Seattle Center
12:06AM 47.4636 -122.2972 273° West 108 124 3,800  Descending Seattle Center
12:06AM 47.4642 -122.3108 275° West 112 129 3,900 98 Climbing Seattle Center
12:07AM 47.4658 -122.3389 270° West 105 121 3,900 -200 Level Seattle Center
12:07AM 47.4658 -122.3525 309° West 109 125 3,700 -787 Descending Seattle Center
12:08AM 47.4825 -122.3833 312° West 137 158 3,100 -885 Descending Seattle Center
12:08AM 47.4942 -122.4025 320° Northwest 146 168 2,800 -1,000 Descending Seattle Center
12:09AM 47.5267 -122.4436 337° Northwest 151 174 1,900 -709 Descending Seattle Center
12:10AM 47.5528 -122.4603 348° North 142 163 1,500 -393 Descending Seattle Center
12:11AM 47.5628 -122.4633 33° Northeast 143 165 1,500  Level Seattle Center
12:11AM 47.5903 -122.4367 39° Northeast 158 182 1,500 -98 Level Seattle Center
12:12AM 47.5981 -122.4272 70° East 160 184 1,400 -197 Descending Seattle Center
12:12AM 47.6083 -122.3858 115° Southeast 144 166 1,300 -200 Descending Seattle Center
12:13AM 47.6047 -122.3744 139° Southeast 135 155 1,200 -590 Descending Seattle Center
12:13AM 47.5875 -122.3519 180° South 103 119 700 -590 Descending Seattle Center
12:14AM 47.5858 -122.3519 149° Southeast 103 119 600 -197 Descending Seattle Center
12:14AM 47.5642 -122.3325 158° South 98 113 500 -197 Descending Seattle Center
12:15AM 47.5628 -122.3317 149° Southeast 96 110 400 -400 Descending Seattle Center
12:15AM 47.5450 -122.3156 149° Southeast 96 110 100 -367 Descending Seattle Center